�������l�o���
Date,Time,MP-1(��Sv/h),MP-2(��Sv/h),MP-3(��Sv/h),MP-4(��Sv/h),MP-5(��Sv/h),MP-6(��Sv/h),MP-7(��Sv/h),����,����(m/s),���J
2013/06/20,00:00,0.9,0.6,0.9,0.8,0.8,0.4,0.3,���쓌,0.8,��
2013/06/20,00:10,0.9,0.6,0.9,0.8,0.8,0.4,0.3,�쓌,0.8,��
2013/06/20,00:20,0.9,0.6,0.9,0.8,0.8,0.4,0.3,��쐼,2.5,��
2013/06/20,00:30,0.9,0.6,0.9,0.8,0.8,0.4,0.3,�쐼,3.7,��
2013/06/20,00:40,0.9,0.6,0.9,0.8,0.8,0.4,0.3,�쐼,4.5,��
2013/06/20,00:50,0.9,0.6,0.9,0.8,0.8,0.4,0.3,��쐼,4.2,��
2013/06/20,01:00,0.9,0.6,0.9,0.8,0.8,0.4,0.3,��쐼,3.3,��
2013/06/20,01:10,0.9,0.6,0.9,0.8,0.8,0.4,0.3,��쐼,4.1,��
2013/06/20,01:20,0.9,0.6,0.9,0.8,0.8,0.4,0.3,��쐼,3.9,��
2013/06/20,01:30,0.9,0.6,0.9,0.8,0.8,0.4,0.3,��쐼,5.7,��
2013/06/20,01:40,0.9,0.6,0.9,0.8,0.8,0.4,0.3,��쐼,5.4,��
2013/06/20,01:50,0.9,0.6,0.9,0.8,0.8,0.4,0.3,��쐼,4.0,��
2013/06/20,02:00,0.9,0.6,0.9,0.8,0.8,0.4,0.3,��쐼,5.3,�L
2013/06/20,02:10,0.9,0.6,0.9,0.8,0.8,0.4,0.3,��,4.4,�L
2013/06/20,02:20,0.9,0.6,0.9,0.8,0.8,0.4,0.3,��,4.9,�L
2013/06/20,02:30,0.9,0.6,0.9,0.8,0.8,0.4,0.3,��,5.4,�L
2013/06/20,02:40,0.9,0.6,0.9,0.8,0.8,0.4,0.3,��,4.2,�L
2013/06/20,02:50,0.9,0.6,0.9,0.8,0.8,0.4,0.3,��쐼,4.4,�L
2013/06/20,03:00,0.9,0.6,0.9,0.8,0.8,0.4,0.3,��쐼,5.8,�L
2013/06/20,03:10,0.9,0.6,0.9,0.8,0.8,0.4,0.3,��,4.2,�L
2013/06/20,03:20,0.9,0.6,0.9,0.8,0.8,0.4,0.3,��쐼,2.4,�L
2013/06/20,03:30,0.9,0.6,0.9,0.8,0.8,0.4,0.3,�쐼,1.2,��
2013/06/20,03:40,0.9,0.6,0.9,0.8,0.8,0.4,0.3,��,1.0,�L
2013/06/20,03:50,0.9,0.6,0.9,0.8,0.8,0.4,0.3,��쐼,0.7,�L
2013/06/20,04:00,0.9,0.6,0.9,0.8,0.8,0.4,0.3,-,CALM,�L
2013/06/20,04:10,0.9,0.6,0.9,0.8,0.8,0.4,0.3,-,CALM,�L
2013/06/20,04:20,0.9,0.6,0.9,0.8,0.8,0.4,0.3,���k��,1.1,�L
2013/06/20,04:30,0.9,0.6,0.9,0.8,0.8,0.4,0.3,-,CALM,�L
2013/06/20,04:40,0.9,0.6,0.9,0.8,0.8,0.4,0.3,-,CALM,�L
2013/06/20,04:50,0.9,0.6,0.9,0.8,0.8,0.4,0.3,�쐼,1.1,�L
2013/06/20,05:00,0.9,0.6,0.9,0.8,0.8,0.4,0.3,��쐼,1.6,��
2013/06/20,05:10,0.9,0.6,0.9,0.8,0.8,0.4,0.3,��쐼,1.6,��
2013/06/20,05:20,0.9,0.6,0.9,0.8,0.8,0.4,0.3,��쐼,0.7,��
2013/06/20,05:30,0.9,0.6,0.9,0.8,0.8,0.4,0.3,��,0.6,��
2013/06/20,05:40,0.9,0.6,0.9,0.8,0.8,0.4,0.3,�k�k��,1.0,��
2013/06/20,05:50,0.9,0.6,0.9,0.8,0.8,0.4,0.3,�k��,0.6,��
2013/06/20,06:00,0.9,0.6,0.9,0.8,0.8,0.4,0.3,�k,0.7,��
2013/06/20,06:10,0.9,0.6,0.9,0.8,0.8,0.4,0.3,-,CALM,��
2013/06/20,06:20,0.9,0.6,0.9,0.8,0.8,0.4,0.3,�k�k��,0.8,��
2013/06/20,06:30,0.9,0.6,0.9,0.8,0.8,0.4,0.3,�k�k��,1.3,��
2013/06/20,06:40,0.9,0.6,0.9,0.8,0.8,0.4,0.3,�k,0.9,��
2013/06/20,06:50,0.9,0.6,0.9,0.8,0.8,0.4,0.3,�k,1.4,��
2013/06/20,07:00,0.9,0.6,0.9,0.8,0.8,0.4,0.3,�k,1.1,��
2013/06/20,07:10,0.9,0.6,0.9,0.8,0.8,0.4,0.3,�k,1.3,��
2013/06/20,07:20,0.9,0.6,0.9,0.8,0.8,0.4,0.3,�k,1.2,��
2013/06/20,07:30,0.9,0.6,0.9,0.8,0.8,0.4,0.3,-,CALM,��
2013/06/20,07:40,0.9,0.6,0.9,0.8,0.8,0.4,0.3,-,CALM,��
2013/06/20,07:50,0.9,0.6,0.9,0.8,0.8,0.4,0.3,-,CALM,��
2013/06/20,08:00,0.9,0.6,0.9,0.8,0.8,0.4,0.3,�쐼,1.0,��
2013/06/20,08:10,0.9,0.6,0.9,0.8,0.8,0.4,0.3,�쐼,1.4,��
2013/06/20,08:20,0.9,0.6,0.9,0.8,0.8,0.4,0.3,���쐼,1.8,��
2013/06/20,08:30,0.9,0.6,0.9,0.8,0.8,0.4,0.3,�쐼,1.7,��
2013/06/20,08:40,0.9,0.6,0.9,0.8,0.8,0.4,0.3,��쐼,1.6,��
2013/06/20,08:50,0.9,0.6,0.9,0.8,0.8,0.4,0.3,��,1.5,��
2013/06/20,09:00,0.9,0.6,0.9,0.8,0.8,0.4,0.3,��,1.9,��
2013/06/20,09:10,0.9,0.6,0.9,0.8,0.8,0.4,0.3,��쐼,2.0,��
2013/06/20,09:20,0.9,0.6,0.9,0.8,0.8,0.4,0.3,��쐼,2.2,��
2013/06/20,09:30,0.9,0.6,0.9,0.8,0.8,0.4,0.3,��,2.1,��
2013/06/20,09:40,0.9,0.6,0.9,0.8,0.8,0.4,0.3,��,2.1,��
2013/06/20,09:50,0.9,0.6,0.9,0.8,0.8,0.4,0.3,��쐼,2.8,��
2013/06/20,10:00,0.9,0.6,0.9,0.8,0.8,0.4,0.3,��,2.9,��
2013/06/20,10:10,0.9,0.6,0.9,0.8,0.8,0.4,0.3,��,2.5,��
2013/06/20,10:20,0.9,0.6,0.9,0.8,0.8,0.4,0.3,��,3.1,��
2013/06/20,10:30,0.9,0.6,0.9,0.8,0.8,0.4,0.3,��쐼,3.8,��
2013/06/20,10:40,0.9,0.6,0.9,0.8,0.8,0.4,0.3,��,3.6,��
2013/06/20,10:50,0.9,0.6,0.9,0.9,0.8,0.4,0.3,��쐼,4.8,��
2013/06/20,11:00,0.9,0.6,0.9,0.9,0.8,0.4,0.3,��쐼,3.6,��
2013/06/20,11:10,0.9,0.6,0.9,0.9,0.8,0.4,0.3,��,4.6,��
2013/06/20,11:20,0.9,0.6,0.9,0.9,0.8,0.4,0.3,��쓌,4.0,��
2013/06/20,11:30,0.9,0.6,0.9,0.9,0.8,0.4,0.3,��쓌,4.5,��
2013/06/20,11:40,0.9,0.6,0.9,0.9,0.8,0.4,0.3,��,4.9,��
2013/06/20,11:50,0.9,0.6,0.9,0.9,0.8,0.4,0.3,��,3.4,��
2013/06/20,12:00,0.9,0.6,0.9,0.9,0.8,0.4,0.3,��,5.0,��
2013/06/20,12:10,0.9,0.6,0.9,0.9,0.8,0.4,0.3,��,4.2,��
2013/06/20,12:20,0.9,0.6,0.9,0.9,0.8,0.4,0.3,��,5.5,��
2013/06/20,12:30,0.9,0.6,0.9,0.9,0.8,0.4,0.3,��,5.1,��
2013/06/20,12:40,0.9,0.6,0.9,0.9,0.8,0.4,0.3,��쓌,4.7,��
2013/06/20,12:50,0.9,0.6,0.9,0.9,0.8,0.4,0.3,��,4.2,��
2013/06/20,13:00,0.9,0.6,0.9,0.9,0.8,0.4,0.3,��쓌,3.4,��
2013/06/20,13:10,0.9,0.6,0.9,0.9,0.8,0.4,0.3,��쓌,3.4,��
2013/06/20,13:20,0.9,0.6,0.9,0.9,0.8,0.4,0.3,��쓌,4.6,��
2013/06/20,13:30,0.9,0.6,0.9,0.9,0.8,0.4,0.3,��,4.5,��
2013/06/20,13:40,0.9,0.6,0.9,0.9,0.8,0.4,0.3,��,5.0,��
2013/06/20,13:50,0.9,0.6,0.9,0.9,0.8,0.4,0.3,��,4.5,��
2013/06/20,14:00,0.9,0.6,0.9,0.9,0.8,0.4,0.3,��,4.7,��
2013/06/20,14:10,0.9,0.6,0.9,0.9,0.8,0.4,0.3,��,4.2,��
2013/06/20,14:20,0.9,0.6,0.9,0.9,0.8,0.4,0.3,��,4.9,��
2013/06/20,14:30,0.9,0.6,0.9,0.9,0.8,0.4,0.3,��쐼,5.2,��
2013/06/20,14:40,0.9,0.6,0.9,0.9,0.8,0.4,0.3,��,4.9,��
2013/06/20,14:50,0.9,0.6,0.9,0.9,0.8,0.4,0.3,��,5.0,��
2013/06/20,15:00,0.9,0.6,0.9,0.9,0.8,0.4,0.3,��쐼,4.0,��
2013/06/20,15:10,0.9,0.6,0.9,0.9,0.8,0.4,0.3,��쐼,3.1,��
2013/06/20,15:20,0.9,0.6,0.9,0.9,0.8,0.4,0.3,��쐼,3.1,��
2013/06/20,15:30,0.9,0.6,0.9,0.9,0.8,0.4,0.3,��,3.1,��
2013/06/20,15:40,0.9,0.6,0.9,0.9,0.8,0.4,0.3,��,3.6,��
2013/06/20,15:50,0.9,0.6,0.9,0.9,0.8,0.4,0.3,��,4.3,��
2013/06/20,16:00,0.9,0.6,0.9,0.9,0.8,0.4,0.3,��,5.0,��
2013/06/20,16:10,0.9,0.6,0.9,0.9,0.8,0.4,0.3,��,5.6,��
2013/06/20,16:20,0.9,0.6,0.9,0.9,0.8,0.4,0.3,��,5.6,��
2013/06/20,16:30,0.9,0.6,0.9,0.9,0.8,0.4,0.3,��쐼,5.9,��
2013/06/20,16:40,0.9,0.6,0.9,0.9,0.8,0.4,0.3,��쐼,6.5,��
2013/06/20,16:50,0.9,0.6,0.9,0.9,0.8,0.4,0.3,��쐼,7.2,��
2013/06/20,17:00,0.9,0.6,0.9,0.9,0.8,0.4,0.3,��,8.0,��
2013/06/20,17:10,0.9,0.6,0.9,0.9,0.8,0.4,0.3,��쐼,6.7,��
2013/06/20,17:20,0.9,0.6,0.9,0.9,0.8,0.4,0.3,��쐼,7.0,��
2013/06/20,17:30,0.9,0.6,0.9,0.9,0.8,0.4,0.3,��쐼,5.9,��
2013/06/20,17:40,0.9,0.6,0.9,0.9,0.8,0.4,0.3,��쐼,7.3,��
2013/06/20,17:50,0.9,0.6,0.9,0.9,0.8,0.4,0.3,��쐼,5.8,��
2013/06/20,18:00,0.9,0.6,0.9,0.9,0.8,0.4,0.3,��쐼,5.5,��
2013/06/20,18:10,0.9,0.6,0.9,0.9,0.8,0.4,0.3,��쐼,6.4,��
2013/06/20,18:20,0.9,0.6,0.9,0.9,0.8,0.4,0.3,��쐼,7.0,��
2013/06/20,18:30,0.9,0.6,0.9,0.9,0.8,0.4,0.3,��쐼,8.6,��
2013/06/20,18:40,0.9,0.6,0.9,0.9,0.8,0.4,0.3,��쐼,8.4,��
2013/06/20,18:50,0.9,0.6,0.9,0.9,0.8,0.4,0.3,��쐼,7.1,��
2013/06/20,19:00,0.9,0.6,0.9,0.9,0.8,0.4,0.3,��쐼,5.7,��
2013/06/20,19:10,0.9,0.6,0.9,0.9,0.8,0.4,0.3,�쐼,4.2,��
2013/06/20,19:20,0.9,0.6,0.9,0.9,0.8,0.4,0.3,�쐼,3.6,��
2013/06/20,19:30,0.9,0.6,0.9,0.9,0.8,0.4,0.3,�쐼,3.9,��
2013/06/20,19:40,0.9,0.6,0.9,0.9,0.8,0.4,0.3,��쐼,3.8,��
2013/06/20,19:50,0.9,0.6,0.9,0.9,0.8,0.4,0.3,��쐼,4.2,��
2013/06/20,20:00,0.9,0.6,0.9,0.9,0.8,0.4,0.3,��쐼,4.5,��
2013/06/20,20:10,0.9,0.6,0.9,0.9,0.8,0.4,0.3,��쐼,4.6,��
2013/06/20,20:20,0.9,0.6,0.9,0.9,0.8,0.4,0.3,��쐼,5.2,��
2013/06/20,20:30,0.9,0.6,0.9,0.9,0.8,0.4,0.3,��쐼,5.3,��
2013/06/20,20:40,0.9,0.6,0.9,0.9,0.8,0.4,0.3,��쐼,5.2,��
2013/06/20,20:50,0.9,0.6,0.9,0.9,0.8,0.4,0.3,�쐼,4.6,��
2013/06/20,21:00,0.9,0.6,0.9,0.9,0.8,0.4,0.3,�쐼,3.1,��
2013/06/20,21:10,0.9,0.6,0.9,0.9,0.8,0.4,0.3,���쐼,2.9,��
2013/06/20,21:20,0.9,0.6,0.9,0.9,0.8,0.4,0.3,���쐼,2.8,��
2013/06/20,21:30,0.9,0.6,0.9,0.8,0.8,0.4,0.3,���쐼,1.9,��
2013/06/20,21:40,0.9,0.6,0.9,0.8,0.8,0.4,0.3,��,1.8,��
2013/06/20,21:50,0.9,0.6,0.9,0.9,0.8,0.4,0.3,��,1.7,��
2013/06/20,22:00,0.9,0.6,0.9,0.8,0.8,0.4,0.3,�k��,1.7,��
2013/06/20,22:10,0.9,0.6,0.9,0.9,0.8,0.4,0.3,�k�k��,1.9,��
2013/06/20,22:20,0.9,0.6,0.9,0.9,0.8,0.4,0.3,�k�k��,2.3,��
2013/06/20,22:30,0.9,0.6,0.9,0.9,0.8,0.4,0.3,�k�k��,2.0,��
2013/06/20,22:40,0.9,0.6,0.9,0.9,0.8,0.4,0.3,�k�k��,2.4,��
2013/06/20,22:50,0.9,0.6,0.9,0.9,0.8,0.4,0.3,�k�k��,1.8,��
2013/06/20,23:00,0.9,0.6,0.9,0.8,0.8,0.4,0.3,�k�k��,1.6,��
2013/06/20,23:10,0.9,0.6,0.9,0.8,0.8,0.4,0.3,�k�k��,1.5,��
2013/06/20,23:20,0.9,0.6,0.9,0.8,0.8,0.4,0.3,�k�k��,0.7,��
2013/06/20,23:30,0.9,0.6,0.9,0.8,0.8,0.4,0.3,�k,1.4,��
2013/06/20,23:40,0.9,0.6,0.9,0.8,0.8,0.4,0.3,�k,2.9,��
2013/06/20,23:50,0.9,0.6,0.9,0.8,0.8,0.4,0.3,�k,2.8,��
